Regional Weather Roundup
Issued by NWS Upton, NY

Current Version | Previous Version | Graphics & Text | Print | Product List | Glossary Off
Versions: 1 2 3 4 5 6 7 8 9 10 11 12 13 14 15 16 17 18 19 20 21 22 23 24 25 26 27 28 29 30 31 32 33 34 35 36 37 38 39 40 41 42 43 44 45 46 47 48 49

000
ASUS41 KOKX 050205
RWROKX

REGIONAL WEATHER ROUNDUP
NATIONAL WEATHER SERVICE NEW YORK NY
900 PM EST WED MAR 04 2015

NOTE: "FAIR" INDICATES FEW OR NO CLOUDS BELOW 12,000 FEET WITH NO
SIGNIFICANT WEATHER AND/OR OBSTRUCTIONS TO VISIBILITY.

NYZ071-072-176-178-NJZ106-104-050300-
NEW YORK CITY METRO AREA


CITY           SKY/WX    TMP DP  RH WIND       PRES   REMARKS
CENTRAL PARK   LGT RAIN  42  39  89 VRB7      29.92R FOG
LAGUARDIA APRT LGT RAIN  43  39  86 SW8       29.90R FOG
KENNEDY INTL   LGT RAIN  39  36  89 SW9       29.91R FOG     WCI  33
NEWARK/LIBERTY LGT RAIN  40  39  97 SW9       29.91R FOG     WCI  34
BRNX BOT. GARD   N/A     41  39  93 SW6       29.91R
TETERBORO      LGT RAIN  39  37  92 S7        29.89R WCI  34
$$

NYZ177-179-078>081-050300-
LONG ISLAND NEW YORK

CITY           SKY/WX    TMP DP  RH WIND       PRES   REMARKS
FARMINGDALE    LGT RAIN  40  38  93 W8        29.89R FOG     WCI  34
ISLIP          LGT RAIN  39  37  92 SW8       29.87R FOG     WCI  33
SHIRLEY        LGT RAIN  39  37  92 W7        29.90R FOG     WCI  34
WESTHAMPTON    CLOUDY    37  34  89 W6        29.90R FOG     WCI  32
MONTAUK POINT    N/A     41  36  82 SW7       29.87S
$$

NYZ052-065-067-050300-
HUDSON VALLEY

CITY           SKY/WX    TMP DP  RH WIND       PRES   REMARKS
WHITE PLAINS   LGT RAIN  40  38  93 W5        29.87R FOG
NEWBURGH       CLOUDY    37  34  87 W6        29.87S WCI  33
MONTGOMERY     CLOUDY    35  32  88 CALM      29.86R
POUGHKEEPSIE   CLOUDY    36  31  82 CALM      29.87S
ALBANY         CLOUDY    36  23  59 NW9       29.89F WCI  29
$$

NJZ001-105-106-008-010-013-015-019>022-104-050300-
NEW JERSEY

CITY           SKY/WX    TMP DP  RH WIND       PRES   REMARKS
NEWARK/LIBERTY LGT RAIN  40  39  97 SW9       29.91R FOG     WCI  34
TETERBORO      LGT RAIN  39  37  92 S7        29.89R WCI  34
CALDWELL       LGT RAIN  40  37  89 SW5       29.90R FOG
MORRISTOWN     LGT RAIN  41  39  93 W5        29.91R FOG
SOMERVILLE     LGT RAIN  40  37  89 CALM      29.90R FOG
SUSSEX         CLOUDY    38  34  85 VRB3      29.89R
ANDOVER          N/A     38  36  92 VRB3      29.89R
TRENTON        RAIN      41  39  93 W5        29.92R FOG
MILLVILLE      LGT RAIN N/A N/A N/A CALM      29.93R VSB 1
ATLANTIC CITY  LGT RAIN  42  42 100 CALM      29.92R VSB 1
WRIGHTSTOWN    RAIN      41  41 100 NW6       29.91R FOG
TOMS RIVER     CLOUDY    43  39  87 W5        29.93R VSB 1
BELMAR         CLOUDY    43  37  81 W5        29.91R VSB 1/4
$$

PAZ047>061-062-071-050300-
EASTERN PENNSYLVANIA

CITY           SKY/WX    TMP DP  RH WIND       PRES   REMARKS
PHILADELPHIA   LGT RAIN  41  40  96 W5        29.95R VSB 3/4
ALLENTOWN      LGT RAIN  38  35  89 SW7       29.91R FOG     WCI  33
SCRANTON       CLOUDY    38  33  82 SW10      29.87S WCI  31
$$

CTZ002-004>006-009-010-012-RIZ004-006-007-MAZ004-011-015-050300-
SOUTHERN NEW ENGLAND
 IN CT

CITY           SKY/WX    TMP DP  RH WIND       PRES   REMARKS
BRADLEY INTL   CLOUDY    39  32  76 CALM      29.85R
HARTFORD       CLOUDY    40  31  70 S5        29.86R
DANBURY        CLOUDY    34  31  88 CALM      29.87R FOG
WTRBRY/OXFORD  CLOUDY    37  28  70 W6        29.86R WCI  33
BRIDGEPORT     MIX PCPN  36  35  96 SW5       29.88R FOG     WCI  32
MERIDEN        CLOUDY    38  32  79 S5        29.87R WCI  34
NEW HAVEN      CLOUDY    36  34  92 CALM      29.87R FOG
CHESTER        MIX PCPN  37  36  93 W5        29.86R WCI  34
GROTON         CLOUDY    36  35  96 W7        29.87R FOG     WCI  30
WILLIMANTIC    CLOUDY    37  32  82 CALM      29.85R

 IN RI

CITY           SKY/WX    TMP DP  RH WIND       PRES   REMARKS
PROVIDENCE     CLOUDY    37  33  85 CALM      29.85R
BLOCK ISLAND   CLOUDY    37  34  87 W8        29.84R WCI  31
WESTERLY       CLOUDY    35  34  96 SW3       29.87R FOG

 IN MA

CITY           SKY/WX    TMP DP  RH WIND       PRES   REMARKS
BOSTON         CLOUDY    39  30  70 SW8       29.84R WCI  33
WORCESTER      CLOUDY    36  28  73 W9        29.80R WCI  29
WESTFIELD      CLOUDY    35  28  75 CALM      29.84R
PROVINCETOWN   CLOUDY    36  34  93 SW8       29.86R WCI  29
NANTUCKET      CLOUDY    36  35  96 SW8       29.84F FOG     WCI  30
$$

ANZ330-335-338-340-345-350-353-355-050300-
COASTAL MARINE OBSERVATIONS


STATION/POSITION TIME  SKY/WX   TEMP    WIND        PRES    VSBY  WAVE
                                AIR SEA DIR/SP/G                  HT/PER
                 (UTC)          (F)     (DEG/KT/KT) (MB)    (MI)  (FT/S)
NY HARB ENTRANCE 0200            40 38  240/  8/  8 1012.4          4/ 9
4S FIRE IS       0200               33                N/A           6/11
20S FIRE ISLAND  0100               35              1012.3          6/ 9
23SW MTP         0200                                 N/A           8/10
HUDSON CANYON    NOT AVBL
EXECUTION ROCKS  NOT AVBL
WESTERN LI SOUND NOT AVBL
CENTRAL LI SOUND NOT AVBL
EASTERN LI SOUND NOT AVBL
ROBBINS REEF     0200            42     250/  9/ 10 1011.1
$$


>>>>>>>>>>>>>>>>>>>>>>>>>>>> KEY <<<<<<<<<<<<<<<<<<<<<<<<<<<
>                                                          <
>     SKY/WX - SKY CONDITION/PRESENT WEATHER               <
>     TMP    - TEMPERATURE IN FAHRENHEIT                   <
>     DP     - DEWPOINT IN FAHRENHEIT                      <
>     RH     - RELATIVE HUMIDITY IN PERCENT                <
>     WIND   - DIRECTION AND SPEED IN MPH                  <
>     PRES   - MEAN SEA LEVEL PRESSURE IN INCHES OF HG     <
>     WCI    - WIND CHILL INDEX                            <
>     VSB    - VISIBILITY IN MILES                         <
>     HX     - HEAT INDEX                                  <
>     TC     - TEMPERATURE IN CELSIUS                      <
>     VRB    - VARIABLE WIND DIRECTION                     <
>                                                          <
>>>>>>>>>>>>>>>>>>>>>>>>>>>> KEY <<<<<<<<<<<<<<<<<<<<<<<<<<<




USA.gov is the U.S. government's official web portal to all federal, state and local government web resources and services.